Canton, MA

2:36 AM EST on February 23, 2017 (GMT -0500)
East Milton

Weather History for KMQE - February, 2014

Change the Weather History Date:

Monday, February 17, 2014

  Actual Average (KOWD) Record (KOWD)
Temperature  
Mean Temperature 18 °F -  
Max Temperature 26 °F 37 °F 59 °F (2011)
Min Temperature 10 °F 19 °F 0 °F (2014)
Degree Days  
Heating Degree Days 47    
Moisture  
Dew Point -3 °F    
Average Humidity 41    
Maximum Humidity 60    
Minimum Humidity 28    
Precipitation  
Precipitation 0.00 in - - ()
Sea Level Pressure  
Sea Level Pressure 30.23 in    
Wind  
Wind Speed 14 mph (NW)    
Max Wind Speed 22 mph    
Max Gust Speed 34 mph    
Averages and records for this station are not official NWS values.
T = Trace of Precipitation, MM = Missing Value Source: NWS Daily Summary

Daily Weather History Graph

Daily Weather History Graph

Search for Another Location

Airport or City:

Trip Planner

Search our weather history database for the weather conditions in past years. The results will help you decide how hot, cold, wet, or windy it might be!

Date:

Astronomy

Feb. 17, 2014 Rise Set
Actual Time 6:37 AM EST 5:19 PM EST
Civil Twilight 6:09 AM EST 5:48 PM EST
Nautical Twilight 5:36 AM EST 6:20 PM EST
Astronomical Twilight 5:04 AM EST 6:53 PM EST
Moon 8:15 PM EST (2/17) 7:33 AM EST (2/17)
Length of Visible Light 11h 38m
Length of Day
10h 41m
Waning Gibbous, 93% of the Moon is Illuminated
Feb 17
Waning Gibbous
Feb 22
Last Quarter
Mar 1
New
Mar 8
First Quarter
Mar 16
Full

Hourly Weather History & Observations

Time (EST) Temp. Windchill Dew Point Humidity Pressure Visibility Wind Dir Wind Speed Gust Speed Precip Events Conditions
12:54 AM 18.0 °F 4.8 °F 6.1 °F 60% 29.99 in - WNW 12.7 mph 21.9 mph N/A   Unknown
1:54 AM 16.0 °F 0.1 °F -2.9 °F 43% 30.01 in - NW 17.3 mph 29.9 mph N/A   Unknown
2:54 AM 14.0 °F -3.0 °F -4.0 °F 45% 30.03 in - NW 18.4 mph 27.6 mph N/A   Unknown
3:54 AM 12.9 °F -2.2 °F -2.9 °F 49% 30.06 in - WNW 13.8 mph 26.5 mph N/A   Unknown
4:54 AM 10.9 °F -4.7 °F -2.9 °F 54% 30.09 in - NW 13.8 mph 24.2 mph N/A   Unknown
5:54 AM 10.0 °F -5.9 °F -4.0 °F 53% 30.12 in - NW 13.8 mph 20.7 mph N/A   Unknown
6:54 AM 10.0 °F -4.5 °F -4.0 °F 53% 30.15 in - WNW 11.5 mph - N/A   Unknown
7:54 AM 10.9 °F -5.4 °F -4.0 °F 51% 30.18 in - NW 15.0 mph 24.2 mph N/A   Unknown
8:54 AM 14.0 °F -2.5 °F -5.1 °F 43% 30.22 in - NW 17.3 mph 25.3 mph N/A   Unknown
9:54 AM 17.1 °F 2.0 °F -5.1 °F 37% 30.23 in - NW 16.1 mph 24.2 mph N/A   Unknown
10:54 AM 19.9 °F 4.3 °F -6.0 °F 32% 30.24 in - NW 19.6 mph 34.5 mph N/A   Unknown
11:54 AM 21.9 °F 6.2 °F -6.0 °F 29% 30.25 in - NW 21.9 mph 34.5 mph N/A   Unknown
12:54 PM 25.0 °F 12.6 °F -2.9 °F 30% 30.25 in - NW 15.0 mph 25.3 mph N/A   Unknown
1:54 PM 26.1 °F 14.0 °F -2.9 °F 28% 30.26 in - NW 15.0 mph 26.5 mph N/A   Unknown
2:54 PM 26.1 °F 15.0 °F -2.9 °F 28% 30.28 in - NW 12.7 mph 21.9 mph N/A   Unknown
3:54 PM 25.0 °F 10.6 °F -2.0 °F 31% 30.29 in - NW 20.7 mph 29.9 mph N/A   Unknown
4:54 PM 24.1 °F 12.5 °F -2.0 °F 32% 30.31 in - NW 12.7 mph 21.9 mph N/A   Unknown
5:54 PM 21.0 °F 10.6 °F -2.0 °F 36% 30.34 in - WNW 9.2 mph 19.6 mph N/A   Unknown
6:54 PM 19.9 °F 9.3 °F -2.0 °F 38% 30.35 in - NW 9.2 mph - N/A   Unknown
7:54 PM 17.1 °F 5.8 °F -0.9 °F 45% 30.36 in - NW 9.2 mph - N/A   Unknown
8:54 PM 17.1 °F 3.6 °F -2.9 °F 41% 30.37 in - NNW 12.7 mph - N/A   Unknown
9:54 PM 17.1 °F 4.3 °F -5.1 °F 37% 30.35 in - North 11.5 mph - N/A   Unknown
10:54 PM 15.1 °F 3.3 °F -5.1 °F 41% 30.33 in - NNW 9.2 mph - N/A   Unknown
11:54 PM 14.0 °F 2.9 °F -5.1 °F 43% 30.38 in - West 8.1 mph - N/A   Unknown